Weather History for Leesburg, FL

Change the Weather History Date:

Thursday, December 6, 2012

  Actual Average Record
Temperature  
Mean Temperature 70 °F -  
Max Temperature 80 °F 72 °F 84 °F (2013)
Min Temperature 60 °F 50 °F 33 °F (1963)
Cooling Degree Days 5    
Growing Degree Days 20 (Base 50)    
Moisture  
Dew Point 61 °F    
Average Humidity 84    
Maximum Humidity 100    
Minimum Humidity 47    
Precipitation  
Precipitation 0.00 in - - ()
Sea Level Pressure  
Sea Level Pressure 30.04 in    
Wind  
Wind Speed 4 mph (NE)    
Max Wind Speed 10 mph    
Max Gust Speed -    
Visibility 7 miles    
Events Fog    
Averages and records for this station are not official NWS values.
T = Trace of Precipitation, MM = Missing Value Source: NWS Daily Summary

Daily Weather History Graph

Daily Weather History Graph

Search for Another Location

Airport:

Trip Planner

Search our weather history database for the weather conditions in past years. The results will help you decide how hot, cold, wet, or windy it might be!

Date:

Astronomy

Dec. 06, 2012 Rise Set
Actual Time 7:07 AM EST 5:29 PM EST
Civil Twilight 6:41 AM EST 5:55 PM EST
Nautical Twilight 6:11 AM EST 6:25 PM EST
Astronomical Twilight 5:43 AM EST 6:53 PM EST
Moon No Moon Rise 12:26 PM EST (12/6)
Length of Visible Light 11h 14m
Length of Day
10h 22m
Waning Gibbous, 49% of the Moon is Illuminated
Dec 6
Waning Gibbous
Dec 13
New
Dec 20
First Quarter
Dec 28
Full
Jan 4
Last Quarter

Hourly Weather History & Observations

Time (EST) Temp. Heat Index Dew Point Humidity Pressure Visibility Wind Dir Wind Speed Gust Speed Precip Events Conditions
12:21 AM 60.8 °F - 59.0 °F 94% 30.09 in 7.0 mi Calm Calm - N/A   Partly Cloudy
12:53 AM 60.1 °F - 59.0 °F 96% 30.08 in 6.0 mi NE 4.6 mph - N/A   Partly Cloudy
1:53 AM 62.1 °F - 60.1 °F 93% 30.07 in 10.0 mi Calm Calm - N/A   Mostly Cloudy
2:45 AM 60.8 °F - 60.8 °F 100% 30.06 in 10.0 mi Calm Calm - N/A   Mostly Cloudy
2:53 AM 61.0 °F - 60.1 °F 97% 30.06 in 10.0 mi NE 3.5 mph - N/A   Mostly Cloudy
3:13 AM 62.6 °F - 60.8 °F 94% 30.06 in 1.5 mi NNE 3.5 mph - N/A   Overcast
3:22 AM 62.6 °F - 60.8 °F 94% 30.06 in 0.5 mi NNE 3.5 mph - N/A Fog Fog
3:53 AM 61.0 °F - 61.0 °F 100% 30.05 in 0.2 mi NE 3.5 mph - N/A Fog Fog
4:53 AM 61.0 °F - 61.0 °F 100% 30.04 in 0.2 mi NNE 3.5 mph - N/A Fog Fog
5:53 AM 61.0 °F - 60.1 °F 97% 30.04 in 0.5 mi NNE 5.8 mph - N/A Fog Fog
6:53 AM 61.0 °F - 61.0 °F 100% 30.05 in 0.5 mi North 3.5 mph - N/A Fog Fog
7:53 AM 61.0 °F - 61.0 °F 100% 30.07 in 0.5 mi Calm Calm - N/A Fog Fog
8:17 AM 62.6 °F - 60.8 °F 94% 30.07 in 2.5 mi North 3.5 mph - N/A   Overcast
8:24 AM 62.6 °F - 60.8 °F 94% 30.07 in 9.0 mi NNE 3.5 mph - N/A   Overcast
8:31 AM 62.6 °F - 60.8 °F 94% 30.07 in 10.0 mi North 3.5 mph - N/A   Overcast
8:53 AM 63.0 °F - 62.1 °F 97% 30.07 in 10.0 mi NNE 3.5 mph - N/A   Overcast
9:53 AM 68.0 °F - 63.0 °F 84% 30.08 in 10.0 mi ENE 3.5 mph - N/A   Scattered Clouds
10:53 AM 75.0 °F - 63.0 °F 66% 30.07 in 10.0 mi East 6.9 mph - N/A   Clear
11:53 AM 78.1 °F - 62.1 °F 58% 30.04 in 10.0 mi Variable 5.8 mph - N/A   Clear
12:53 PM 79.0 °F - 61.0 °F 54% 30.01 in 10.0 mi East 6.9 mph - N/A   Partly Cloudy
1:53 PM 80.1 °F 80.7 °F 59.0 °F 48% 29.98 in 10.0 mi ESE 4.6 mph - N/A   Clear
2:53 PM 80.1 °F 80.6 °F 57.9 °F 47% 29.96 in 10.0 mi East 5.8 mph - N/A   Partly Cloudy
3:53 PM 80.1 °F 80.6 °F 57.9 °F 47% 29.97 in 10.0 mi ENE 10.4 mph - N/A   Clear
4:53 PM 77.0 °F - 57.9 °F 52% 29.98 in 10.0 mi ENE 10.4 mph - N/A   Mostly Cloudy
5:53 PM 73.0 °F - 59.0 °F 61% 29.98 in 10.0 mi NE 10.4 mph - N/A   Clear
6:53 PM 70.0 °F - 60.1 °F 71% 30.00 in 10.0 mi NE 4.6 mph - N/A   Clear
7:53 PM 68.0 °F - 62.1 °F 81% 30.01 in 10.0 mi NE 6.9 mph - N/A   Clear
9:53 PM 64.9 °F - 62.1 °F 90% 30.02 in 10.0 mi NNE 5.8 mph - N/A   Clear
10:53 PM 64.0 °F - 62.1 °F 93% 30.01 in 10.0 mi NE 5.8 mph - N/A   Clear
11:02 PM 62.6 °F - 60.8 °F 94% 30.01 in 10.0 mi NNE 6.9 mph - N/A   Scattered Clouds
11:09 PM 64.4 °F - 62.6 °F 94% 30.01 in 10.0 mi NNE 9.2 mph - N/A   Mostly Cloudy
11:44 PM 62.6 °F - 62.6 °F 100% 30.01 in 2.0 mi NE 9.2 mph - N/A   Overcast
11:53 PM 63.0 °F - 63.0 °F 100% 30.01 in 1.5 mi NNE 8.1 mph - N/A   Overcast